This demonstration page uses our WeatherBlox Daily Observations layout. Learn more.

Left ArrowRight Arrow

Hourly Observations for August 15, 2021

Temp ( °F °C ) Dew Point ( °F °C ) Humidity (%) Winds ( mph kmh ) Pressure ( in mb ) Visibility ( mi km ) Precip ( " mm )
12:15 am 00:15 Clear 62 16.9 55 13 78 78 NE 5 7 30.25 1024 10 16 0.00 0.00
12:35 am 00:35 Clear 61 16 55 13 83 83 NE 5 7 30.25 1024 10 16 0.00 0.00
12:55 am 00:55 Clear 59 14.8 55 13 89 89 NE 5 7 30.24 1024 10 16 0.00 0.00
1:15 am 01:15 Clear 58 14.5 55 12.8 90 90 NE 5 7 30.24 1024 10 16 0.00 0.00
1:35 am 01:35 Clear 58 14.5 55 12.5 88 88 NE 5 7 30.24 1024 10 16 0.00 0.00
1:55 am 01:55 Clear 58 14.7 54 12.3 86 86 ENE 5 7 30.23 1024 10 16 0.00 0.00
2:15 am 02:15 Clear 59 14.9 54 12.3 85 85 NE 3 6 30.23 1024 10 16 0.00 0.00
2:35 am 02:35 Clear 57 14 54 12.4 90 90 NE 3 6 30.24 1024 10 16 0.00 0.00
2:55 am 02:55 Clear 57 13.7 54 12.2 91 91 NE 3 6 30.23 1024 10 16 0.00 0.00
3:15 am 03:15 Clear 55 12.9 54 12 94 94 Calm 30.23 1024 10 16 0.00 0.00
3:35 am 03:35 Clear 54 12.4 53 11.8 96 96 NE 3 6 30.22 1023 10 16 0.00 0.00
3:55 am 03:55 Clear 54 12.4 53 11.7 96 96 NE 3 6 30.22 1023 10 16 0.00 0.00
4:15 am 04:15 Clear 54 12 53 11.5 97 97 NNE 3 6 30.22 1023 10 16 0.00 0.00
4:35 am 04:35 Clear 54 12.1 53 11.6 97 97 NNE 5 7 30.22 1023 10 16 0.00 0.00
4:55 am 04:55 Clear 53 11.8 52 11.3 97 97 Calm 30.22 1024 10 16 0.00 0.00
5:15 am 05:15 Clear 53 11.4 52 11 97 97 Calm 30.23 1024 10 16 0.00 0.00
5:35 am 05:35 Clear 52 11.3 52 11 98 98 NE 3 6 30.23 1024 10 16 0.00 0.00
5:55 am 05:55 Clear 54 12 53 11.6 97 97 NE 3 6 30.22 1023 10 16 0.00 0.00
6:15 am 06:15 Clear 55 12.6 54 12 96 96 NE 3 6 30.22 1023 10 16 0.00 0.00
6:35 am 06:35 Clear 55 13 54 12.1 94 94 NE 5 7 30.22 1023 10 16 0.00 0.00
6:55 am 06:55 Clear 55 13 54 12.2 95 95 NE 5 7 30.22 1023 10 16 0.00 0.00
7:15 am 07:15 Sunny 55 13 54 12.2 95 95 NE 5 7 30.23 1024 10 16 0.00 0.00
7:35 am 07:35 Sunny 55 13 54 12.2 95 95 NE 3 6 30.23 1024 10 16 0.00 0.00
7:55 am 07:55 Sunny 57 13.7 55 12.6 93 93 NE 5 7 30.23 1024 10 16 0.00 0.00
8:15 am 08:15 Sunny 58 14.6 55 13 90 90 NE 3 6 30.22 1024 10 16 0.00 0.00
8:35 am 08:35 Sunny 60 15.8 55 12.9 83 83 ENE 5 7 30.22 1023 10 16 0.00 0.00
8:55 am 08:55 Sunny 62 16.5 55 12.9 79 79 ENE 6 9 30.22 1023 10 16 0.00 0.00
9:15 am 09:15 Sunny 63 17.3 55 12.7 75 75 ENE 5 7 30.22 1023 10 16 0.00 0.00
9:35 am 09:35 Sunny 64 18 55 12.8 72 72 ENE 3 6 30.21 1023 10 16 0.00 0.00
9:55 am 09:55 Sunny 66 18.8 55 12.9 69 69 ENE 5 7 30.22 1023 10 16 0.00 0.00
10:15 am 10:15 Sunny 67 19.3 55 12.7 66 66 ENE 6 9 30.21 1023 10 16 0.00 0.00
10:35 am 10:35 Sunny 69 20.5 55 13 62 62 E 7 11 30.20 1023 10 16 0.00 0.00
10:55 am 10:55 Sunny 69 20.5 55 12.9 62 62 E 7 11 30.21 1023 10 16 0.00 0.00
11:15 am 11:15 Sunny 70 21.2 57 13.7 62 62 ENE 5 7 30.20 1023 10 16 0.00 0.00
11:35 am 11:35 Sunny 70 21.2 56 13.4 61 61 E 7 11 30.20 1023 10 16 0.00 0.00
11:55 am 11:55 Sunny 71 21.5 56 13.6 61 61 ENE 8 13 30.20 1023 10 16 0.00 0.00
12:15 pm 12:15 Sunny 72 22.1 58 14.2 61 61 ENE 8 13 30.20 1023 10 16 0.00 0.00
12:35 pm 12:35 Sunny 73 22.6 58 14.7 61 61 NE 6 9 30.20 1023 10 16 0.00 0.00
12:55 pm 12:55 Sunny 73 23 58 14.3 58 58 ENE 8 13 30.19 1022 10 16 0.00 0.00
1:15 pm 13:15 Sunny 74 23.4 59 15 59 59 NE 7 11 30.17 1022 10 16 0.00 0.00
1:35 pm 13:35 Sunny 74 23.4 59 14.9 59 59 E 7 11 30.17 1022 10 16 0.00 0.00
1:55 pm 13:55 Sunny 76 24.2 60 15.3 58 58 NE 9 15 30.17 1022 10 16 0.00 0.00
2:15 pm 14:15 Sunny 76 24.2 60 15.3 58 58 ENE 7 11 30.16 1021 10 16 0.00 0.00
2:35 pm 14:35 Sunny 75 24 59 15.2 58 58 ENE 8 13 30.15 1021 10 16 0.00 0.00
2:55 pm 14:55 Sunny 76 24.2 60 15.4 58 58 NE 6 9 30.14 1021 10 16 0.00 0.00
3:15 pm 15:15 Partly Cloudy 77 24.9 61 16.1 58 58 ENE 7 11 30.13 1020 10 16 0.00 0.00
3:35 pm 15:35 Mostly Cloudy 76 24.6 60 15.8 58 58 E 6 9 30.13 1020 10 16 0.00 0.00
3:55 pm 15:55 Cloudy 76 24.5 60 15.7 58 58 NE 5 7 30.12 1020 10 16 0.00 0.00
4:15 pm 16:15 Cloudy 76 24.2 61 16 60 60 ENE 8 13 30.12 1020 10 16 0.00 0.00
4:35 pm 16:35 Cloudy 76 24.2 60 15.7 59 59 ENE 7 11 30.11 1020 10 16 0.00 0.00
4:55 pm 16:55 Cloudy 75 24.1 60 15.8 60 60 ENE 6 9 30.11 1020 10 16 0.00 0.00
5:15 pm 17:15 Cloudy 75 23.9 60 15.5 59 59 NE 8 13 30.11 1020 10 16 0.00 0.00
5:35 pm 17:35 Cloudy 75 23.7 59 15.2 59 59 NE 7 11 30.10 1019 10 16 0.00 0.00
5:55 pm 17:55 Cloudy 74 23.6 59 15.2 59 59 ENE 5 7 30.10 1019 10 16 0.00 0.00
6:15 pm 18:15 Cloudy 74 23.6 59 14.9 58 58 ENE 6 9 30.09 1019 10 16 0.00 0.00
6:35 pm 18:35 Mostly Cloudy 74 23.5 59 14.9 59 59 NE 7 11 30.09 1019 10 16 0.00 0.00
6:55 pm 18:55 Cloudy 74 23.2 59 15 60 60 ENE 3 6 30.10 1019 10 16 0.00 0.00
7:15 pm 19:15 Cloudy 73 23 59 14.8 60 60 NE 6 9 30.09 1019 10 16 0.00 0.00
7:35 pm 19:35 Cloudy 73 22.6 59 14.8 62 62 NE 5 7 30.08 1019 10 16 0.00 0.00
7:55 pm 19:55 Cloudy 72 22.1 58 14.5 62 62 NE 6 9 30.08 1019 10 16 0.00 0.00
8:15 pm 20:15 Partly Cloudy 71 21.7 58 14.3 63 63 NE 5 7 30.08 1019 10 16 0.00 0.00
8:35 pm 20:35 Partly Cloudy 71 21.5 57 13.7 61 61 NE 5 7 30.09 1019 10 16 0.00 0.00
8:55 pm 20:55 Mostly Cloudy 70 21.1 57 13.9 64 64 NE 5 7 30.09 1019 10 16 0.00 0.00
9:15 pm 21:15 Cloudy 70 21 57 14.1 65 65 NE 3 6 30.10 1019 10 16 0.00 0.00
9:35 pm 21:35 Cloudy 69 20.6 57 14.1 66 66 NE 3 6 30.10 1019 10 16 0.00 0.00
9:55 pm 21:55 Mostly Cloudy 68 20.2 58 14.5 70 70 ENE 3 6 30.12 1020 10 16 0.00 0.00
10:15 pm 22:15 Cloudy 69 20.3 58 14.4 69 69 ENE 3 6 30.12 1020 10 16 0.00 0.00
10:35 pm 22:35 Cloudy 69 20.5 58 14.3 68 68 ENE 5 7 30.11 1020 10 16 0.00 0.00
10:55 pm 22:55 Cloudy 69 20.5 57 14 66 66 E 6 9 30.10 1019 10 16 0.00 0.00
11:15 pm 23:15 Cloudy 69 20.7 57 13.9 65 65 E 7 11 30.10 1019 10 16 0.00 0.00
11:35 pm 23:35 Cloudy 69 20.6 57 13.8 65 65 E 7 11 30.11 1020 10 16 0.00 0.00
11:55 pm 23:55 Cloudy 69 20.5 57 13.7 65 65 E 7 11 30.10 1019 10 16 0.00 0.00

Powered by AerisWeather